Location: Bluff Heights
(33.7692°N, 118.1592°W)
Time: 09:58:18
(UTC+00:00)

Tiros 1 - Pass Details

Date: 30 July 2021
Orbit: 630 x 663 km, 48.4° (Epoch: 22 September)

Event Time Altitude Azimuth Distance (km) Brightness Sun altitude
Rises 06:00:50 0° 309° (NW) 2,963 11.6 -30.7°
Reaches altitude 10° 06:04:20 10° 335° (NNW) 2,044 10.6 -31.1°
Maximum altitude 06:06:44 14° 6° (N) 1,800 10.0 -31.3°
Drops below altitude 10° 06:09:07 10° 37° (NE) 2,032 9.9 -31.6°
Enters shadow 06:09:14 10° 38° (NE) 2,054 9.9 -31.6°
Sets 06:12:35 0° 63° (ENE) 2,933 - -31.9°
